FW4683 Weather Reports


Display with metric or nautical units.
time (UTC)temp
F
wind
direction
speed
MPH
gust
MPH
rain 1hr
in
rain 24hr
in
rain mn
in
humidity
%
barometer
mb
20260509092015 49 96 0.0 0.0 0.00 0.00 0.00 94 1012.1
20260509091517 49 96 0.0 0.0 0.00 0.00 0.00 94 1012.1
20260509091015 49 96 0.0 0.0 0.00 0.00 0.00 94 1012.2
20260509090515 49 96 0.0 0.0 0.00 0.00 0.00 93 1012.2
20260509085514 49 96 0.0 0.0 0.00 0.00 0.00 94 1012.1
20260509085020 49 96 0.0 0.0 0.00 0.00 0.00 93 1012.0
20260509084517 49 96 0.0 0.0 0.00 0.00 0.00 94 1012.1
20260509084014 50 96 0.0 0.0 0.00 0.00 0.00 94 1012.2
20260509083512 50 96 0.0 0.0 0.00 0.00 0.00 94 1012.0
20260509083018 50 96 0.0 0.0 0.00 0.00 0.00 94 1012.2
20260509082516 50 96 0.0 0.0 0.00 0.00 0.00 94 1012.2
20260509082011 50 96 0.0 3.0 0.00 0.00 0.00 93 1012.2
20260509081520 50 96 0.0 4.0 0.00 0.00 0.00 93 1012.3
20260509081012 50 96 2.0 6.0 0.00 0.00 0.00 93 1012.3
20260509080511 50 96 3.0 6.0 0.00 0.00 0.00 93 1012.3
20260509075610 50 96 0.0 3.0 0.00 0.00 0.00 93 1012.2
20260509075011 50 96 0.0 3.0 0.00 0.00 0.00 92 1012.2
20260509074508 50 96 0.0 1.0 0.00 0.00 0.00 92 1012.3
20260509074006 51 96 0.0 0.0 0.00 0.00 0.00 92 1012.3
20260509073506 51 96 0.0 3.0 0.00 0.00 0.00 91 1012.2
20260509073007 51 96 0.0 3.0 0.00 0.00 0.00 91 1012.4
20260509072504 51 96 0.0 1.0 0.00 0.00 0.00 91 1012.5
20260509072003 52 96 0.0 1.0 0.00 0.00 0.00 90 1012.6
20260509071502 52 96 0.0 1.0 0.00 0.00 0.00 91 1012.5
20260509071002 52 96 0.0 1.0 0.00 0.00 0.00 90 1012.6
20260509070502 52 96 0.0 1.0 0.00 0.00 0.00 90 1012.7
20260509070200 52 96 0.0 0.0 0.00 0.00 0.00 90 1012.8
20260509065501 52 96 0.0 0.0 0.00 0.00 0.00 90 1012.8
20260509065001 53 96 0.0 1.0 0.00 0.00 0.00 90 1013.0
20260509064502 53 96 0.0 1.0 0.00 0.00 0.00 89 1013.0
20260509064100 53 96 0.0 1.0 0.00 0.00 0.00 89 1013.0
20260509063600 53 96 0.0 1.0 0.00 0.00 0.00 89 1013.1
20260509063058 53 96 0.0 1.0 0.00 0.00 0.00 89 1013.1
20260509062558 53 96 0.0 1.0 0.00 0.00 0.00 89 1013.3
20260509062101 53 96 0.0 1.0 0.00 0.00 0.00 89 1013.3
20260509061559 53 96 0.0 1.0 0.00 0.00 0.00 89 1013.4
20260509061056 53 96 0.0 1.0 0.00 0.00 0.00 89 1013.4
20260509060556 53 96 0.0 1.0 0.00 0.00 0.00 89 1013.5
20260509060156 53 96 0.0 1.0 0.00 0.00 0.00 89 1013.5
20260509055555 53 96 0.0 1.0 0.00 0.00 0.00 88 1013.6
20260509055053 53 96 0.0 1.0 0.00 0.00 0.00 88 1013.7
20260509054607 54 96 0.0 2.0 0.00 0.00 0.00 88 1013.7
20260509054056 54 96 0.0 2.0 0.00 0.00 0.00 88 1013.9
20260509053551 54 96 0.0 1.0 0.00 0.00 0.00 87 1013.9
20260509053052 54 96 0.0 1.0 0.00 0.00 0.00 87 1014.0
20260509052550 54 96 0.0 2.0 0.00 0.00 0.00 86 1014.1
20260509052047 55 96 0.0 2.0 0.00 0.00 0.00 85 1014.1
20260509051549 55 96 0.0 1.0 0.00 0.00 0.00 84 1014.1
20260509051049 56 96 0.0 1.0 0.00 0.00 0.00 83 1014.2
20260509050550 57 96 0.0 1.0 0.00 0.00 0.00 82 1014.2
20260509050146 57 96 0.0 1.0 0.00 0.00 0.00 82 1014.2
20260509045548 57 96 0.0 1.0 0.00 0.00 0.00 82 1014.1
20260509045047 57 96 0.0 0.0 0.00 0.00 0.00 82 1014.3
20260509044551 57 96 0.0 1.0 0.00 0.00 0.00 82 1014.3
20260509044048 57 96 0.0 1.0 0.00 0.00 0.00 82 1014.4
20260509043548 57 96 0.0 3.0 0.00 0.00 0.00 81 1014.6
20260509043047 57 96 1.0 3.0 0.00 0.00 0.00 81 1014.6
20260509042547 57 96 0.0 2.0 0.00 0.00 0.00 81 1014.6
20260509042049 57 96 0.0 2.0 0.00 0.00 0.00 81 1014.6
20260509041548 57 96 0.0 2.0 0.00 0.00 0.00 81 1014.5
20260509041048 57 96 0.0 2.0 0.00 0.00 0.00 81 1014.5
20260509040548 57 96 0.0 1.0 0.00 0.00 0.00 81 1014.5
20260509040148 57 96 0.0 0.0 0.00 0.00 0.00 81 1014.5
20260509035546 57 96 0.0 0.0 0.00 0.00 0.00 81 1014.5
20260509035045 57 96 0.0 2.0 0.00 0.00 0.00 80 1014.6
20260509034557 58 96 0.0 2.0 0.00 0.00 0.00 80 1014.7
20260509034145 58 96 0.0 3.0 0.00 0.00 0.00 79 1014.6
20260509033544 58 96 1.0 4.0 0.00 0.00 0.00 78 1014.6
20260509033045 58 96 1.0 6.0 0.00 0.00 0.00 78 1014.6
20260509032545 59 96 1.0 6.0 0.00 0.00 0.00 78 1014.7
20260509032044 59 96 2.0 4.0 0.00 0.00 0.00 77 1014.7
20260509031555 59 96 2.0 4.0 0.00 0.00 0.00 76 1014.6
20260509031044 59 96 1.0 4.0 0.00 0.00 0.00 76 1014.7
20260509030548 59 96 0.0 3.0 0.00 0.00 0.00 76 1014.6
20260509030144 60 96 1.0 3.0 0.00 0.00 0.00 75 1014.7
20260509025543 60 96 1.0 3.0 0.00 0.00 0.00 75 1014.7
20260509025043 60 96 2.0 3.0 0.00 0.00 0.00 75 1014.6
20260509024543 60 96 1.0 6.0 0.00 0.00 0.00 75 1014.6
20260509024043 60 96 2.0 6.0 0.00 0.00 0.00 75 1014.6
20260509023542 60 96 2.0 6.0 0.00 0.00 0.00 75 1014.7
20260509023054 60 96 3.0 8.0 0.00 0.00 0.00 75 1014.7
20260509022543 60 96 3.0 8.0 0.00 0.00 0.00 75 1014.8
20260509022043 60 96 4.0 7.0 0.00 0.00 0.00 74 1014.8
20260509021543 60 96 1.0 4.0 0.00 0.00 0.00 74 1014.8
20260509021044 60 96 2.0 4.0 0.00 0.00 0.00 74 1014.7
20260509020544 60 96 2.0 4.0 0.00 0.00 0.00 73 1014.6
20260509020142 60 96 0.0 6.0 0.00 0.00 0.00 73 1014.6
20260509015546 60 96 1.0 7.0 0.00 0.00 0.00 73 1014.7
20260509015044 60 96 4.0 7.0 0.00 0.00 0.00 73 1014.6
20260509014546 61 96 4.0 7.0 0.00 0.00 0.00 72 1014.4
20260509014046 61 96 3.0 7.0 0.00 0.00 0.00 72 1014.6
20260509013543 61 96 2.0 7.0 0.00 0.00 0.00 72 1014.4
20260509013106 61 96 3.0 8.0 0.00 0.00 0.00 72 1014.5
20260509012543 61 96 2.0 8.0 0.00 0.00 0.00 72 1014.5
20260509012044 61 96 1.0 8.0 0.00 0.00 0.00 71 1014.5
20260509011543 61 96 3.0 8.0 0.00 0.00 0.00 70 1014.5
20260509011043 62 96 3.0 6.0 0.00 0.00 0.00 70 1014.5
20260509010543 62 96 1.0 4.0 0.00 0.00 0.00 69 1014.2
20260509010144 62 96 2.0 4.0 0.00 0.00 0.00 68 1014.4
20260509005543 62 96 1.0 4.0 0.00 0.00 0.00 68 1014.4
20260509005043 62 96 2.0 4.0 0.00 0.00 0.00 68 1014.4
20260509004542 62 96 1.0 3.0 0.00 0.00 0.00 68 1014.4
20260509004042 63 96 0.0 2.0 0.00 0.00 0.00 67 1014.2
20260509003542 63 96 0.0 6.0 0.00 0.00 0.00 67 1014.3
20260509003042 63 96 2.0 6.0 0.00 0.00 0.00 67 1014.3
20260509002543 63 96 1.0 3.0 0.00 0.00 0.00 66 1014.2
20260509002041 63 96 1.0 3.0 0.00 0.00 0.00 66 1014.0
20260509001542 64 96 0.0 3.0 0.00 0.00 0.00 65 1014.1
20260509001042 63 96 1.0 7.0 0.00 0.00 0.00 65 1014.1
20260509000541 64 96 1.0 7.0 0.00 0.00 0.00 65 1014.1
20260509000141 64 96 3.0 9.0 0.00 0.00 0.00 64 1013.9
20260508235539 64 96 4.0 9.0 0.00 0.00 0.00 63 1013.9
20260508235037 64 96 4.0 11.0 0.00 0.00 0.00 63 1013.9
20260508234538 64 96 3.0 9.0 0.00 0.00 0.00 62 1014.0
20260508234040 64 96 2.0 9.0 0.00 0.00 0.00 62 1013.9
20260508233538 64 96 4.0 10.0 0.00 0.00 0.00 62 1013.9
20260508233038 64 96 6.0 13.0 0.00 0.00 0.00 61 1014.0
20260508232537 65 96 6.0 13.0 0.00 0.00 0.00 61 1013.9
20260508232037 65 96 7.0 12.0 0.00 0.00 0.00 61 1013.9
20260508231540 65 96 4.0 10.0 0.00 0.00 0.00 61 1013.9
20260508231037 65 96 6.0 12.0 0.00 0.00 0.00 60 1013.9
20260508230536 65 96 6.0 12.0 0.00 0.00 0.00 59 1013.9
20260508230137 65 96 4.0 13.0 0.00 0.00 0.00 59 1013.8
20260508225538 65 96 4.0 16.0 0.00 0.00 0.00 59 1013.8
20260508225037 66 96 3.0 16.0 0.00 0.00 0.00 59 1013.8
20260508224556 66 96 8.0 16.0 0.00 0.00 0.00 58 1013.8
20260508224037 66 96 7.0 16.0 0.00 0.00 0.00 59 1014.0
20260508223540 66 96 6.0 16.0 0.00 0.00 0.00 58 1014.1
20260508223037 66 96 9.0 15.0 0.00 0.00 0.00 58 1013.9
20260508222537 66 96 8.0 12.0 0.00 0.00 0.00 57 1013.9
20260508222037 66 96 7.0 14.0 0.00 0.00 0.00 57 1014.0
20260508221536 66 96 8.0 14.0 0.00 0.00 0.00 57 1013.9
20260508221036 66 96 8.0 16.0 0.00 0.00 0.00 57 1013.9
20260508220535 67 96 8.0 15.0 0.00 0.00 0.00 56 1013.9
20260508220136 67 96 6.0 15.0 0.00 0.00 0.00 56 1013.7
20260508215535 67 96 6.0 15.0 0.00 0.00 0.00 56 1013.9
20260508215035 66 96 3.0 14.0 0.00 0.00 0.00 57 1014.1
20260508214534 66 96 8.0 14.0 0.00 0.00 0.00 56 1014.1
20260508214037 66 96 6.0 14.0 0.00 0.00 0.00 56 1014.0
20260508213537 66 96 7.0 14.0 0.00 0.00 0.00 57 1013.6
20260508213039 66 96 7.0 14.0 0.00 0.00 0.00 57 1013.7
20260508212535 66 96 7.0 12.0 0.00 0.00 0.00 57 1013.5
20260508212034 66 96 8.0 13.0 0.00 0.00 0.00 56 1013.6
20260508211534 66 96 7.0 13.0 0.00 0.00 0.00 56 1013.7
20260508211034 67 96 9.0 13.0 0.00 0.00 0.00 56 1013.6
20260508210534 67 96 7.0 12.0 0.00 0.00 0.00 55 1013.8
20260508210134 67 96 6.0 15.0 0.00 0.00 0.00 55 1013.8
20260508205534 67 96 6.0 15.0 0.00 0.00 0.00 56 1013.9
20260508205034 67 96 6.0 15.0 0.00 0.00 0.00 54 1013.9
20260508204536 67 96 5.0 9.0 0.00 0.00 0.00 55 1013.9
20260508204032 67 96 5.0 12.0 0.00 0.00 0.00 55 1014.0
20260508203532 67 96 7.0 12.0 0.00 0.00 0.00 55 1014.0
20260508203032 66 96 4.0 13.0 0.00 0.00 0.00 55 1013.9
20260508202532 66 96 8.0 13.0 0.00 0.00 0.00 55 1013.9
20260508202032 66 96 5.0 10.0 0.00 0.00 0.00 55 1014.1
20260508201533 67 96 6.0 0.0 0.00 0.00 0.00 54 1014.3
20260508201033 67 96 4.0 11.0 0.00 0.00 0.00 54 1014.4
20260508200532 67 96 6.0 15.0 0.00 0.00 0.00 54 1014.3
20260508200132 67 96 8.0 13.0 0.00 0.00 0.00 53 1014.5
20260508195533 67 96 7.0 12.0 0.00 0.00 0.00 53 1014.5
20260508195033 67 96 4.0 12.0 0.00 0.00 0.00 53 1014.5
20260508194533 67 96 5.0 16.0 0.00 0.00 0.00 52 1014.7
20260508194033 67 96 9.0 16.0 0.00 0.00 0.00 51 1014.9
20260508193532 67 96 11.0 16.0 0.00 0.00 0.00 53 1014.7
20260508193101 67 96 6.0 16.0 0.00 0.00 0.00 51 1015.0
20260508192532 68 96 5.0 13.0 0.00 0.00 0.00 51 1014.9
20260508192032 67 96 8.0 13.0 0.00 0.00 0.00 51 1015.0
20260508191532 67 96 7.0 14.0 0.00 0.00 0.00 51 1015.1
20260508191031 67 96 8.0 17.0 0.00 0.00 0.00 50 1015.2
20260508190532 67 96 8.0 17.0 0.00 0.00 0.00 50 1015.3
20260508190135 67 96 5.0 15.0 0.00 0.00 0.00 50 1015.3
20260508185529 67 96 8.0 15.0 0.00 0.00 0.00 49 1015.3
20260508185029 67 96 4.0 16.0 0.00 0.00 0.00 50 1015.4
20260508184528 66 96 5.0 12.0 0.00 0.00 0.00 51 1015.4
20260508184027 66 96 3.0 16.0 0.00 0.00 0.00 51 1015.4
20260508183528 66 96 6.0 16.0 0.00 0.00 0.00 50 1015.6
20260508183027 67 96 4.0 12.0 0.00 0.00 0.00 49 1015.6
20260508182527 67 96 5.0 11.0 0.00 0.00 0.00 49 1015.7
20260508182025 66 96 3.0 14.0 0.00 0.00 0.00 50 1015.6
20260508181526 66 96 9.0 15.0 0.00 0.00 0.00 48 1015.7
20260508181031 66 96 9.0 15.0 0.00 0.00 0.00 49 1015.9
20260508180526 66 96 9.0 15.0 0.00 0.00 0.00 48 1016.0
20260508180128 66 96 5.0 15.0 0.00 0.00 0.00 44 1016.3
20260508175526 66 96 8.0 15.0 0.00 0.00 0.00 43 1016.4
20260508175028 66 96 6.0 14.0 0.00 0.00 0.00 42 1016.2
20260508174535 66 96 4.0 10.0 0.00 0.00 0.00 43 1016.1
20260508174029 66 96 6.0 10.0 0.00 0.00 0.00 45 1016.2
20260508173524 66 96 4.0 12.0 0.00 0.00 0.00 46 1016.4
20260508173022 66 96 6.0 14.0 0.00 0.00 0.00 46 1016.6
20260508172522 65 96 7.0 14.0 0.00 0.00 0.00 50 1016.6
20260508172022 65 96 5.0 13.0 0.00 0.00 0.00 50 1016.7
20260508171629 65 96 8.0 13.0 0.00 0.00 0.00 50 1016.7
20260508171021 65 96 5.0 14.0 0.00 0.00 0.00 50 1016.7
20260508170521 65 96 8.0 14.0 0.00 0.00 0.00 50 1016.9
20260508170120 64 96 6.0 12.0 0.00 0.00 0.00 53 1017.0
20260508165520 65 96 6.0 12.0 0.00 0.00 0.00 52 1017.0
20260508165020 65 96 6.0 12.0 0.00 0.00 0.00 52 1017.1
20260508164525 64 96 6.0 13.0 0.00 0.00 0.00 50 1017.2
20260508164020 64 96 8.0 13.0 0.00 0.00 0.00 52 1017.2
20260508163518 64 96 5.0 14.0 0.00 0.00 0.00 51 1017.2
20260508163019 65 96 9.0 14.0 0.00 0.00 0.00 51 1017.3
20260508162518 64 96 2.0 11.0 0.00 0.00 0.00 52 1017.3
20260508162018 64 96 4.0 13.0 0.00 0.00 0.00 52 1017.3
20260508161535 64 96 6.0 13.0 0.00 0.00 0.00 53 1017.4
20260508161018 64 96 2.0 11.0 0.00 0.00 0.00 53 1017.6
20260508160517 64 96 3.0 8.0 0.00 0.00 0.00 53 1017.6
20260508160117 64 96 2.0 10.0 0.00 0.00 0.00 52 1017.7
20260508155517 64 96 3.0 10.0 0.00 0.00 0.00 52 1017.7
20260508155015 64 96 6.0 11.0 0.00 0.00 0.00 53 1017.8
20260508154515 63 96 4.0 11.0 0.00 0.00 0.00 55 1017.9
20260508154015 64 96 5.0 10.0 0.00 0.00 0.00 55 1017.8
20260508153514 63 96 0.0 10.0 0.00 0.00 0.00 56 1017.9
20260508153014 62 96 4.0 10.0 0.00 0.00 0.00 55 1018.0
20260508152512 62 96 5.0 9.0 0.00 0.00 0.00 56 1017.9
20260508152016 62 96 3.0 8.0 0.00 0.00 0.00 56 1018.0
20260508151524 62 96 2.0 8.0 0.00 0.00 0.00 57 1017.9
20260508151017 62 96 5.0 8.0 0.00 0.00 0.00 58 1017.8
20260508150514 62 96 1.0 7.0 0.00 0.00 0.00 57 1017.9
20260508150110 61 96 4.0 8.0 0.00 0.00 0.00 59 1018.1
20260508145511 61 96 3.0 8.0 0.00 0.00 0.00 59 1018.1
20260508145014 61 96 5.0 10.0 0.00 0.00 0.00 59 1018.2
20260508144509 60 96 6.0 10.0 0.00 0.00 0.00 60 1018.1
20260508144008 60 96 3.0 10.0 0.00 0.00 0.00 61 1018.1
20260508143509 59 96 2.0 8.0 0.00 0.00 0.00 61 1018.2
20260508143007 59 96 3.0 8.0 0.00 0.00 0.00 61 1018.1
20260508142512 59 96 3.0 8.0 0.00 0.00 0.00 60 1018.3
20260508142007 60 96 6.0 8.0 0.00 0.00 0.00 59 1018.2
20260508141510 60 96 0.0 4.0 0.00 0.00 0.00 59 1018.2
20260508141010 60 96 0.0 2.0 0.00 0.00 0.00 57 1018.4
20260508140510 59 96 0.0 7.0 0.00 0.00 0.00 59 1018.4
20260508140117 59 96 0.0 6.0 0.00 0.00 0.00 60 1018.3
20260508135507 59 96 1.0 6.0 0.00 0.00 0.00 60 1018.2
20260508135006 58 96 2.0 6.0 0.00 0.00 0.00 60 1018.3
20260508134506 58 96 0.0 6.0 0.00 0.00 0.00 61 1018.3
20260508134005 58 96 1.0 6.0 0.00 0.00 0.00 60 1018.4
20260508133504 58 96 0.0 3.0 0.00 0.00 0.00 62 1018.3
20260508133003 57 96 1.0 7.0 0.00 0.00 0.00 62 1018.4
20260508132503 57 96 1.0 7.0 0.00 0.00 0.00 63 1018.3
20260508132102 57 96 1.0 3.0 0.00 0.00 0.00 63 1018.3
20260508131501 57 96 0.0 2.0 0.00 0.00 0.00 65 1018.3
20260508131102 56 96 0.0 1.0 0.00 0.00 0.00 67 1018.3
20260508130559 55 96 0.0 2.0 0.00 0.00 0.00 67 1018.2
20260508125558 55 96 1.0 4.0 0.00 0.00 0.00 70 1018.1
20260508125057 54 96 0.0 3.0 0.00 0.00 0.00 70 1018.1
20260508124555 53 96 0.0 1.0 0.00 0.00 0.00 73 1018.0
20260508124055 53 96 0.0 2.0 0.00 0.00 0.00 74 1018.0
20260508123553 52 96 0.0 2.0 0.00 0.00 0.00 76 1018.0
20260508123052 52 96 0.0 2.0 0.00 0.00 0.00 80 1017.9
20260508122549 51 96 0.0 1.0 0.00 0.00 0.00 81 1018.0
20260508122049 51 96 0.0 2.0 0.00 0.00 0.00 82 1017.9
20260508121554 51 96 0.0 2.0 0.00 0.12 0.00 82 1017.9
20260508121048 50 96 0.0 1.0 0.00 0.12 0.00 83 1017.9
20260508120549 49 96 0.0 1.0 0.00 0.12 0.00 83 1017.7
20260508120052 49 96 0.0 2.0 0.00 0.12 0.00 84 1017.7
20260508115541 49 96 0.0 2.0 0.00 0.12 0.00 85 1017.6
20260508115039 48 96 0.0 2.0 0.00 0.12 0.00 86 1017.6
20260508114539 48 96 0.0 2.0 0.00 0.12 0.00 86 1017.5
20260508114038 48 96 0.0 0.0 0.00 0.12 0.00 87 1017.4
20260508113540 47 96 0.0 0.0 0.00 0.12 0.00 87 1017.3
20260508113046 47 96 0.0 0.0 0.00 0.12 0.00 89 1017.3
20260508112536 47 96 0.0 0.0 0.00 0.12 0.00 89 1017.2
20260508112036 46 96 0.0 0.0 0.00 0.12 0.00 89 1017.1
20260508111536 46 96 0.0 0.0 0.00 0.17 0.00 90 1017.1
20260508111035 46 96 0.0 0.0 0.00 0.17 0.00 90 1016.9
20260508110535 45 96 0.0 3.0 0.00 0.17 0.00 91 1016.8
20260508110033 45 96 1.0 3.0 0.00 0.17 0.00 90 1016.8
20260508105534 45 96 0.0 0.0 0.00 0.17 0.00 90 1016.7
20260508105035 45 96 0.0 0.0 0.00 0.17 0.00 90 1016.7
20260508104532 45 96 0.0 0.0 0.00 0.17 0.00 90 1016.6
20260508104031 46 96 0.0 0.0 0.00 0.17 0.00 90 1016.5
20260508103530 46 96 0.0 0.0 0.00 0.17 0.00 90 1016.4
20260508103029 46 96 0.0 0.0 0.00 0.17 0.00 89 1016.2
20260508102530 46 96 0.0 0.0 0.00 0.17 0.00 89 1016.2
20260508102029 46 96 0.0 0.0 0.00 0.17 0.00 89 1016.1
20260508101528 46 96 0.0 0.0 0.00 0.17 0.00 88 1015.9
20260508101027 47 96 0.0 0.0 0.00 0.17 0.00 88 1015.8
20260508100526 47 96 0.0 0.0 0.00 0.17 0.00 87 1015.7
20260508100025 47 96 0.0 0.0 0.00 0.17 0.00 87 1015.7
20260508095527 48 96 0.0 0.0 0.00 0.17 0.00 86 1015.6
20260508095024 48 96 0.0 0.0 0.00 0.17 0.00 86 1015.6
20260508094522 48 96 0.0 0.0 0.00 0.17 0.00 86 1015.5
20260508094021 49 96 0.0 1.0 0.00 0.17 0.00 85 1015.5
20260508093521 49 96 0.0 2.0 0.00 0.17 0.00 84 1015.5
20260508093021 49 96 0.0 1.0 0.00 0.17 0.00 85 1015.5
20260508092519 49 96 0.0 1.0 0.00 0.17 0.00 85 1015.5